• In Belarus
  • List of Countries
  • For 7 days
  • Water Temperature
  • Satellite Maps
  • Weather Map
  • Weather Widgets
  • user-avatar
    Login

    Hourly Weather Bonn

    Today, 16 December, Saturday

    Time Temperature Precipitation Wind Pressure Humidity
    00:00 +2°C° 0 mm 1 mps 745 mmHg 94%
    01:00 +2°C° 0 mm 1 mps 746 mmHg 94%
    02:00 +2°C° 0 mm 1 mps 746 mmHg 95%
    03:00 +3°C° 0 mm 1 mps 747 mmHg 96%
    04:00 +2°C° 0 mm 2 mps 748 mmHg 95%
    05:00 +2°C° 0 mm 2 mps 748 mmHg 95%
    06:00 +2°C° 0 mm 2 mps 749 mmHg 95%
    07:00 +2°C° 0 mm 2 mps 749 mmHg 94%
    08:00 +1°C° 0 mm 3 mps 750 mmHg 93%
    09:00 +1°C° 0 mm 3 mps 751 mmHg 93%
    10:00 +2°C° 0.1 mm 3 mps 751 mmHg 90%
    11:00 +3°C° 0.1 mm 3 mps 751 mmHg 87%
    12:00 +3°C° 0.1 mm 3 mps 752 mmHg 85%
    13:00 +3°C° 0.1 mm 3 mps 752 mmHg 85%
    14:00 +3°C° 0.1 mm 3 mps 753 mmHg 85%
    15:00 +3°C° 0.1 mm 3 mps 753 mmHg 85%
    16:00 +2°C° 0.1 mm 3 mps 754 mmHg 86%
    17:00 +2°C° 0.1 mm 3 mps 754 mmHg 88%
    18:00 +1°C° 0.1 mm 3 mps 755 mmHg 89%
    19:00 +1°C° 0.1 mm 3 mps 755 mmHg 90%
    20:00 +1°C° 0.1 mm 3 mps 756 mmHg 91%
    21:00 +1°C° 0.1 mm 3 mps 756 mmHg 92%
    22:00 +1°C° 0.1 mm 3 mps 756 mmHg 92%
    23:00 +1°C° 0.1 mm 3 mps 757 mmHg 92%

    Tomorrow, 17 December, Sunday

    Time Temperature Precipitation Wind Pressure Humidity
    00:00 +1°C° 0.1 mm 3 mps 757 mmHg 93%
    01:00 0°C° 0.1 mm 3 mps 758 mmHg 93%
    02:00 0°C° 0.1 mm 3 mps 758 mmHg 93%
    03:00 0°C° 0.1 mm 3 mps 758 mmHg 94%
    04:00 0°C° 0.1 mm 3 mps 759 mmHg 94%
    05:00 0°C° 0.1 mm 3 mps 759 mmHg 94%
    06:00 0°C° 0.1 mm 3 mps 759 mmHg 94%
    07:00 0°C° 0 mm 3 mps 760 mmHg 93%
    08:00 +1°C° 0 mm 3 mps 761 mmHg 92%
    09:00 +1°C° 0 mm 3 mps 761 mmHg 92%
    10:00 +1°C° 0 mm 3 mps 761 mmHg 90%
    11:00 +2°C° 0 mm 3 mps 762 mmHg 87%
    12:00 +3°C° 0 mm 3 mps 762 mmHg 85%
    13:00 +3°C° 0 mm 3 mps 762 mmHg 87%
    14:00 +2°C° 0 mm 3 mps 762 mmHg 89%
    15:00 +2°C° 0 mm 3 mps 763 mmHg 91%
    16:00 +2°C° 0 mm 3 mps 763 mmHg 91%
    17:00 +2°C° 0 mm 3 mps 763 mmHg 91%
    18:00 +1°C° 0 mm 3 mps 764 mmHg 91%
    19:00 +1°C° 0 mm 3 mps 764 mmHg 89%
    20:00 +1°C° 0 mm 3 mps 764 mmHg 88%
    21:00 0°C° 0 mm 3 mps 763 mmHg 86%
    22:00 0°C° 0.5 mm 4 mps 763 mmHg 87%
    23:00 0°C° 0.5 mm 5 mps 762 mmHg 87%

    Day after tomorrow, 18 December, Monday

    Time Temperature Precipitation Wind Pressure Humidity
    00:00 +1°C° 0.5 mm 5 mps 762 mmHg 88%
    01:00 +1°C° 1.6 mm 5 mps 761 mmHg 89%
    02:00 +2°C° 1.6 mm 5 mps 760 mmHg 90%
    03:00 +2°C° 1.6 mm 5 mps 759 mmHg 91%
    04:00 +3°C° 0.8 mm 5 mps 759 mmHg 93%
    05:00 +5°C° 0.8 mm 5 mps 759 mmHg 94%
    06:00 +6°C° 0.8 mm 5 mps 759 mmHg 95%
    07:00 +5°C° 0.1 mm 4 mps 760 mmHg 95%
    08:00 +4°C° 0.1 mm 4 mps 760 mmHg 94%
    09:00 +4°C° 0.1 mm 3 mps 761 mmHg 93%
    10:00 +4°C° 0 mm 3 mps 761 mmHg 90%
    11:00 +5°C° 0 mm 3 mps 762 mmHg 87%
    12:00 +5°C° 0 mm 4 mps 762 mmHg 83%
    13:00 +5°C° 0.1 mm 4 mps 762 mmHg 85%
    14:00 +5°C° 0.1 mm 4 mps 763 mmHg 87%
    15:00 +5°C° 0.1 mm 4 mps 763 mmHg 88%
    16:00 +4°C° 0.1 mm 3 mps 764 mmHg 89%
    17:00 +4°C° 0.1 mm 2 mps 765 mmHg 90%
    18:00 +3°C° 0.1 mm 2 mps 765 mmHg 91%
    19:00 +3°C° 0 mm 2 mps 766 mmHg 92%
    20:00 +3°C° 0 mm 1 mps 767 mmHg 92%
    21:00 +3°C° 0 mm 1 mps 768 mmHg 93%
    22:00 +3°C° 0 mm 1 mps 768 mmHg 93%
    23:00 +2°C° 0 mm 1 mps 768 mmHg 94%

    19 December, Tuesday

    Time Temperature Precipitation Wind Pressure Humidity
    00:00 +2°C° 0 mm 1 mps 769 mmHg 94%
    01:00 +2°C° 0 mm 1 mps 769 mmHg 95%
    02:00 +2°C° 0 mm 1 mps 769 mmHg 95%
    03:00 +2°C° 0 mm 1 mps 769 mmHg 95%
    04:00 +2°C° 0 mm 1 mps 770 mmHg 95%
    05:00 +2°C° 0 mm 1 mps 770 mmHg 95%
    06:00 +2°C° 0 mm 1 mps 770 mmHg 95%
    07:00 +2°C° 0 mm 1 mps 771 mmHg 95%
    08:00 +3°C° 0 mm 1 mps 771 mmHg 94%
    09:00 +4°C° 0 mm 1 mps 771 mmHg 93%
    10:00 +4°C° 0 mm 1 mps 771 mmHg 91%
    11:00 +5°C° 0 mm 1 mps 772 mmHg 88%
    12:00 +6°C° 0 mm 1 mps 772 mmHg 86%
    13:00 +6°C° 0 mm 1 mps 772 mmHg 88%
    14:00 +5°C° 0 mm 1 mps 772 mmHg 90%
    15:00 +4°C° 0 mm 0 mps 772 mmHg 92%
    16:00 +4°C° 0 mm 1 mps 772 mmHg 92%
    17:00 +4°C° 0 mm 1 mps 772 mmHg 92%
    18:00 +3°C° 0 mm 1 mps 772 mmHg 92%
    19:00 +3°C° 0 mm 1 mps 772 mmHg 92%
    20:00 +3°C° 0 mm 1 mps 772 mmHg 91%
    21:00 +3°C° 0 mm 1 mps 773 mmHg 91%
    22:00 +3°C° 0 mm 1 mps 773 mmHg 90%
    23:00 +3°C° 0 mm 1 mps 773 mmHg 89%

    20 December, Wednesday

    Time Temperature Precipitation Wind Pressure Humidity
    00:00 +3°C° 0 mm 1 mps 772 mmHg 88%
    01:00 +3°C° 0 mm 1 mps 772 mmHg 87%
    02:00 +3°C° 0 mm 1 mps 772 mmHg 86%
    03:00 +3°C° 0 mm 1 mps 772 mmHg 86%
    04:00 +4°C° 0 mm 1 mps 772 mmHg 86%
    05:00 +4°C° 0 mm 1 mps 772 mmHg 86%
    06:00 +4°C° 0 mm 1 mps 772 mmHg 85%
    07:00 +5°C° 0.1 mm 1 mps 773 mmHg 87%
    08:00 +5°C° 0.1 mm 1 mps 773 mmHg 88%
    09:00 +5°C° 0.1 mm 1 mps 773 mmHg 90%
    10:00 +6°C° 0 mm 1 mps 773 mmHg 91%
    11:00 +6°C° 0 mm 1 mps 773 mmHg 92%
    12:00 +7°C° 0 mm 1 mps 773 mmHg 92%
    13:00 +7°C° 0.1 mm 1 mps 773 mmHg 94%
    14:00 +7°C° 0.1 mm 1 mps 773 mmHg 95%
    15:00 +7°C° 0.1 mm 1 mps 773 mmHg 96%
    16:00 +7°C° 0.1 mm 1 mps 773 mmHg 97%
    17:00 +7°C° 0.1 mm 1 mps 773 mmHg 97%
    18:00 +7°C° 0.1 mm 1 mps 773 mmHg 97%
    19:00 +8°C° 0 mm 1 mps 773 mmHg 97%
    20:00 +7°C° 0 mm 2 mps 773 mmHg 97%
    21:00 +7°C° 0 mm 2 mps 773 mmHg 97%
    22:00 +7°C° 0 mm 2 mps 773 mmHg 97%
    23:00 +7°C° 0 mm 2 mps 773 mmHg 97%

    21 December, Thursday

    Time Temperature Precipitation Wind Pressure Humidity
    00:00 +7°C° 0 mm 2 mps 773 mmHg 97%
    01:00 +7°C° 0 mm 2 mps 772 mmHg 97%
    02:00 +6°C° 0 mm 2 mps 772 mmHg 96%
    03:00 +6°C° 0 mm 2 mps 772 mmHg 96%
    04:00 +6°C° 0 mm 2 mps 772 mmHg 95%
    05:00 +6°C° 0 mm 2 mps 771 mmHg 95%
    06:00 +5°C° 0 mm 2 mps 771 mmHg 95%
    07:00 +5°C° 0 mm 3 mps 771 mmHg 93%
    08:00 +5°C° 0 mm 3 mps 771 mmHg 92%
    09:00 +5°C° 0 mm 3 mps 771 mmHg 91%
    10:00 +7°C° 0 mm 3 mps 771 mmHg 89%
    11:00 +7°C° 0 mm 4 mps 770 mmHg 87%
    12:00 +8°C° 0 mm 4 mps 770 mmHg 85%
    13:00 +8°C° 0.1 mm 4 mps 769 mmHg 88%
    14:00 +8°C° 0.1 mm 4 mps 769 mmHg 90%
    15:00 +8°C° 0.1 mm 4 mps 768 mmHg 93%
    16:00 +8°C° 0.1 mm 4 mps 768 mmHg 93%
    17:00 +8°C° 0.1 mm 4 mps 768 mmHg 92%
    18:00 +8°C° 0.1 mm 5 mps 768 mmHg 92%
    19:00 +8°C° 0.6 mm 4 mps 768 mmHg 93%
    20:00 +8°C° 0.6 mm 4 mps 768 mmHg 94%
    21:00 +8°C° 0.6 mm 4 mps 768 mmHg 95%
    22:00 +9°C° 0.1 mm 3 mps 768 mmHg 95%
    23:00 +8°C° 0.1 mm 3 mps 768 mmHg 96%
    Show more